Weather History for KPKD - September, 2012

Change the Weather History Date:

Saturday, September 8, 2012

  Actual Average Record
Temperature  
Mean Temperature 52 °F -  
Max Temperature 66 °F 73 °F 90 °F (1978)
Min Temperature 39 °F 48 °F 32 °F (1956)
Degree Days  
Heating Degree Days 12    
Growing Degree Days 2 (Base 50)    
Moisture  
Dew Point 44 °F    
Average Humidity 72    
Maximum Humidity 93    
Minimum Humidity 40    
Precipitation  
Precipitation 0.01 in - - ()
Sea Level Pressure  
Sea Level Pressure 30.00 in    
Wind  
Wind Speed 9 mph (NW)    
Max Wind Speed 26 mph    
Max Gust Speed 37 mph    
Visibility 10 miles    
Events      
Averages and records for this station are not official NWS values.
T = Trace of Precipitation, MM = Missing Value Source: NWS Daily Summary

Daily Weather History Graph

Daily Weather History Graph

Search for Another Location

Airport or City:

Trip Planner

Search our weather history database for the weather conditions in past years. The results will help you decide how hot, cold, wet, or windy it might be!

Date:

Astronomy

Sep. 08, 2012 Rise Set
Actual Time 6:49 AM CDT 7:45 PM CDT
Civil Twilight 6:18 AM CDT 8:15 PM CDT
Nautical Twilight 5:41 AM CDT 8:52 PM CDT
Astronomical Twilight 5:02 AM CDT 9:31 PM CDT
Moon No Moon Rise 2:59 PM CDT (9/8)
Length of Visible Light 13h 57m
Length of Day
12h 55m
Waning Gibbous, 48% of the Moon is Illuminated
Sep 8
Waning Gibbous
Sep 15
New
Sep 22
First Quarter
Sep 29
Full
Oct 8
Last Quarter

Hourly Weather History & Observations

Time (CDT) Temp. Windchill Dew Point Humidity Pressure Visibility Wind Dir Wind Speed Gust Speed Precip Events Conditions
12:53 AM 43.0 °F 40.3 °F 41.0 °F 93% 30.05 in 10.0 mi West 4.6 mph - N/A   Clear
1:53 AM 43.0 °F 41.3 °F 41.0 °F 93% 30.05 in 10.0 mi WNW 3.5 mph - N/A   Clear
2:53 AM 44.1 °F - 41.0 °F 89% 30.02 in 10.0 mi Calm Calm - N/A   Clear
3:53 AM 39.9 °F 37.8 °F 37.9 °F 93% 30.01 in 10.0 mi WSW 3.5 mph - N/A   Clear
4:53 AM 43.0 °F - 41.0 °F 93% 29.99 in 10.0 mi Calm Calm - 0.01 in   Clear
5:53 AM 44.1 °F - 39.9 °F 85% 29.96 in 10.0 mi Calm Calm - N/A   Clear
6:53 AM 43.0 °F 38.8 °F 41.0 °F 93% 29.94 in 10.0 mi SW 6.9 mph - N/A   Clear
7:53 AM 46.9 °F - 44.1 °F 90% 29.92 in 10.0 mi WSW 6.9 mph - N/A   Partly Cloudy
8:53 AM 55.4 °F - 46.4 °F 72% 29.89 in 10.0 mi WNW 10.4 mph - N/A   Mostly Cloudy
9:53 AM 57.9 °F - 44.1 °F 60% 29.90 in 10.0 mi WNW 17.3 mph 24.2 mph N/A   Overcast
10:23 AM 57.2 °F - 46.4 °F 67% 29.89 in 10.0 mi NW 16.1 mph 23.0 mph N/A   Mostly Cloudy
10:53 AM 57.9 °F - 46.0 °F 65% 29.91 in 10.0 mi NNW 16.1 mph 24.2 mph N/A   Mostly Cloudy
11:53 AM 63.0 °F - 44.1 °F 50% 29.91 in 10.0 mi NNW 18.4 mph 31.1 mph N/A   Partly Cloudy
12:53 PM 66.0 °F - 41.0 °F 40% 29.91 in 10.0 mi NW 26.5 mph 34.5 mph N/A   Clear
1:53 PM 63.0 °F - 39.9 °F 43% 29.94 in 10.0 mi NW 19.6 mph 31.1 mph N/A   Overcast
2:53 PM 64.0 °F - 42.1 °F 45% 29.95 in 10.0 mi NW 23.0 mph 36.8 mph N/A   Mostly Cloudy
3:53 PM 62.1 °F - 43.0 °F 50% 29.98 in 10.0 mi NNW 23.0 mph 36.8 mph N/A   Overcast
4:53 PM 61.0 °F - 44.1 °F 54% 29.99 in 10.0 mi NNW 21.9 mph 33.4 mph N/A   Overcast
5:53 PM 59.0 °F - 45.0 °F 60% 30.02 in 10.0 mi NNW 17.3 mph 25.3 mph N/A   Overcast
6:53 PM 59.0 °F - 46.0 °F 62% 30.05 in 10.0 mi North 15.0 mph 25.3 mph 0.00 in   Overcast
7:53 PM 57.0 °F - 46.9 °F 69% 30.06 in 10.0 mi NNW 12.7 mph 20.7 mph N/A   Overcast
8:53 PM 55.9 °F - 48.0 °F 75% 30.08 in 10.0 mi NNW 12.7 mph - N/A   Overcast
9:17 PM 55.4 °F - 48.2 °F 77% 30.08 in 10.0 mi NNW 10.4 mph - N/A   Overcast
9:40 PM 55.4 °F - 48.2 °F 77% 30.08 in 10.0 mi NW 6.9 mph - N/A   Overcast
9:53 PM 55.4 °F - 48.2 °F 77% 30.09 in 10.0 mi NNW 10.4 mph - N/A   Overcast
10:53 PM 54.0 °F - 46.9 °F 77% 30.12 in 10.0 mi NNW 9.2 mph - N/A   Clear
11:53 PM 50.0 °F - 45.0 °F 83% 30.12 in 10.0 mi NW 6.9 mph - N/A   Clear